EDT,Max TemperatureF,Mean TemperatureF,Min TemperatureF,Max Dew PointF,MeanDew PointF,Min DewpointF,Max Humidity, Mean Humidity, Min Humidity, Max Sea Level PressureIn, Mean Sea Level PressureIn, Min Sea Level PressureIn, Max VisibilityMiles, Mean VisibilityMiles, Min VisibilityMiles, Max Wind SpeedMPH, Mean Wind SpeedMPH, Max Gust SpeedMPH,PrecipitationIn, CloudCover, Events, WindDirDegrees
2013-8-1,80,70,64,63,59,54,94,63,39,30.03,30.01,29.98,10,8,3,12,10,23,0.00,4,,290
2013-8-2,82,72,62,59,58,57,88,55,45,30.02,30.00,29.97,10,10,10,13,8,24,0.00,2,,214
2013-8-3,78,72,66,66,64,59,100,79,51,30.05,30.02,30.00,10,9,5,12,5,,0.00,6,,328
2013-8-4,73,68,64,55,54,52,73,56,47,30.20,30.19,30.16,10,10,10,12,8,,0.00,2,,180
2013-8-5,77,70,62,57,55,54,82,57,47,30.14,30.10,30.06,10,10,10,12,5,17,0.00,3,,0
2013-8-6,75,70,66,66,64,61,83,76,69,29.99,29.97,29.96,10,10,10,12,9,,0.00,8,,169
2013-8-7,80,74,69,72,70,68,100,83,65,29.96,29.94,29.91,10,6,2,12,8,,0.00,7,,181
2013-8-8,80,78,75,73,72,70,94,85,70,29.99,29.98,29.96,10,7,4,10,3,,0.00,7,,53
2013-8-9,80,74,68,68,65,63,94,73,54,30.04,30.02,30.01,10,7,2,9,5,,0.00,6,,356
2013-8-10,80,74,68,66,62,59,94,61,48,30.14,30.12,30.10,10,10,10,12,2,,0.00,3,,196
2013-8-11,82,76,71,68,63,59,88,61,45,30.14,30.13,30.11,10,10,10,12,3,,0.00,4,,320
2013-8-12,82,76,69,66,64,61,83,62,48,30.07,30.03,29.97,10,10,10,12,7,,0.00,1,,169
2013-8-13,73,68,64,63,58,54,94,68,50,30.04,30.01,29.97,10,9,4,17,12,23,0.00,4,,342
2013-8-14,66,60,53,63,47,43,88,61,45,30.22,30.21,30.19,10,10,10,9,7,,0.00,3,,19
2013-8-15,71,61,53,50,47,45,88,53,41,30.21,30.20,30.16,10,10,10,12,2,,0.00,2,,105
2013-8-16,73,66,59,55,52,48,88,58,41,30.20,30.19,30.18,10,10,10,12,2,17,0.00,2,,80
2013-8-17,78,68,59,54,52,50,82,50,36,30.24,30.22,30.18,10,10,10,12,5,,0.00,1,,74
2013-8-18,80,76,71,61,57,54,69,53,42,30.22,30.20,30.16,10,10,10,6,1,,0.00,3,,70
2013-8-19,80,72,64,59,57,55,83,52,42,30.17,30.15,30.12,10,10,10,6,1,,0.00,2,,270
2013-8-20,84,75,66,63,59,57,88,53,40,30.20,30.18,30.14,10,10,10,12,5,,0.00,3,,154
2013-8-21,86,80,73,68,64,57,83,58,37,30.18,30.16,30.11,10,10,10,12,7,,0.00,4,,222
2013-8-22,80,76,73,68,66,66,78,67,61,30.13,30.12,30.11,10,10,10,12,6,,0.00,4,,284
2013-8-23,80,70,62,66,64,61,100,82,51,30.17,30.16,30.14,10,5,0,12,5,17,0.00,6,Fog,28
2013-8-24,84,73,64,55,50,45,73,42,27,30.30,30.29,30.26,10,10,10,8,1,,0.00,0,,130
2013-8-25,86,78,73,59,54,50,61,40,29,30.34,30.32,30.27,10,10,10,12,7,,0.00,0,,207
2013-8-26,89,78,71,70,65,63,78,58,40,30.25,30.21,30.15,10,10,10,12,12,17,0.00,3,,264
2013-8-27,89,82,75,72,70,66,89,65,46,30.08,30.05,30.00,10,9,5,12,8,,0.00,2,,236
2013-8-28,89,84,78,70,67,64,65,54,49,29.96,29.95,29.95,10,10,10,12,12,23,0.00,2,,282
2013-8-29,84,78,71,72,66,63,100,67,48,30.09,30.08,30.05,10,7,0,8,3,,0.00,6,Fog,54
2013-8-30,89,79,69,68,64,59,94,58,36,30.01,29.98,29.92,10,9,4,12,7,17,0.00,2,,211
2013-8-31,86,80,73,66,64,63,78,59,45,29.88,29.87,29.85,10,10,10,17,3,29,0.00,4,,180